Bennington, VT

4:53 PM EST on December 08, 2019 (GMT -0500)
Morse State

Weather History for KDDH - September, 2019

Change the Weather History Date:

Tuesday, September 17, 2019

  Actual Average Record
Temperature  
Mean Temperature 55 °F 59 °F  
Max Temperature 70 °F 70 °F 83 °F (2017)
Min Temperature 39 °F 47 °F 32 °F (2013)
Degree Days  
Heating Degree Days 10 7  
Month to date heating degree days 94 81  
Since 1 July heating degree days 129 153  
Cooling Degree Days 0 1  
Month to date cooling degree days 12 21  
Year to date cooling degree days 363 309  
Growing Degree Days 4 (Base 50)    
Moisture  
Dew Point 41 °F    
Average Humidity 64    
Maximum Humidity 96    
Minimum Humidity 31    
Precipitation  
Precipitation 0.00 in 0.12 in 1.08 in (2004)
Month to date precipitation 1.53 1.86  
Year to date precipitation 29.00 29.40  
Sea Level Pressure  
Sea Level Pressure 30.16 in    
Wind  
Wind Speed 3 mph (North)    
Max Wind Speed 14 mph    
Max Gust Speed 21 mph    
Visibility 7 miles    
Events      
T = Trace of Precipitation, MM = Missing Value Source: NWS Daily Summary

Daily Weather History Graph

Daily Weather History Graph

Search for Another Location

Airport or City:

Astronomy

Sep. 17, 2019 Rise Set
Actual Time 6:34 AM EDT 6:59 PM EDT
Civil Twilight 6:06 AM EDT 7:28 PM EDT
Nautical Twilight 5:32 AM EDT 8:01 PM EDT
Astronomical Twilight 4:58 AM EDT 8:35 PM EDT
Moon 8:57 PM EDT (9/17) 9:40 AM EDT (9/17)
Length of Visible Light 13h 21m
Length of Day
12h 25m
Waning Gibbous, 89% of the Moon is Illuminated
Sep 17
Waning Gibbous
Sep 21
Last Quarter
Sep 28
New
Oct 5
First Quarter
Oct 13
Full

Hourly Weather History & Observations

Time (EDT) Temp. Windchill Dew Point Humidity Pressure Visibility Wind Dir Wind Speed Gust Speed Precip Events Conditions
12:54 AM 45.0 °F - 43.0 °F 93% 30.13 in 8.0 mi Calm Calm - N/A   Clear
1:54 AM 43.0 °F - 41.0 °F 93% 30.14 in 9.0 mi Calm Calm - N/A   Clear
2:54 AM 43.0 °F - 41.0 °F 93% 30.14 in 10.0 mi Calm Calm - N/A   Clear
3:54 AM 42.1 °F - 39.9 °F 92% 30.13 in 8.0 mi Calm Calm - N/A   Clear
3:59 AM 42.1 °F - 39.9 °F 92% 30.13 in 1.8 mi Calm Calm - N/A   Clear
4:07 AM 42.1 °F - 39.9 °F 92% 30.13 in 4.0 mi Calm Calm - N/A   Clear
4:31 AM 42.1 °F - 39.0 °F 89% 30.13 in 5.0 mi Calm Calm - N/A   Scattered Clouds
4:46 AM 39.9 °F - 39.0 °F 97% 30.13 in 1.8 mi Calm Calm - N/A   Mostly Cloudy
4:54 AM 41.0 °F - 39.0 °F 93% 30.13 in 1.8 mi Calm Calm - N/A   Mostly Cloudy
4:58 AM 41.0 °F - 39.0 °F 93% 30.13 in 3.0 mi Calm Calm - N/A   Mostly Cloudy
5:15 AM 41.0 °F - 37.9 °F 89% 30.13 in 5.0 mi Calm Calm - N/A   Scattered Clouds
5:26 AM 41.0 °F - 37.9 °F 89% 30.14 in 2.0 mi Calm Calm - N/A   Clear
5:35 AM 39.0 °F - 37.0 °F 93% 30.14 in 4.0 mi Calm Calm - N/A   Clear
5:54 AM 39.0 °F - 37.9 °F 96% 30.15 in 3.0 mi Calm Calm - N/A   Partly Cloudy
6:10 AM 39.9 °F - 37.9 °F 93% 30.15 in 10.0 mi Calm Calm - N/A   Mostly Cloudy
6:49 AM 39.2 °F - 37.4 °F 93% 30.16 in 6.0 mi Calm Calm - N/A   Scattered Clouds
6:54 AM 39.9 °F - 37.9 °F 93% 30.17 in 8.0 mi Calm Calm - N/A   Partly Cloudy
7:21 AM 41.0 °F - 37.9 °F 89% 30.17 in 4.0 mi Calm Calm - N/A   Mostly Cloudy
7:23 AM 41.0 °F - 39.0 °F 93% 30.17 in 1.8 mi Calm Calm - N/A   Mostly Cloudy
7:32 AM 42.1 °F - 39.9 °F 92% 30.17 in 3.0 mi Calm Calm - N/A   Overcast
7:54 AM 45.0 °F - 43.0 °F 93% 30.18 in 10.0 mi Calm Calm - N/A   Partly Cloudy
8:54 AM 52.0 °F - 46.9 °F 83% 30.19 in 10.0 mi Calm Calm - N/A   Clear
9:54 AM 57.9 °F - 48.9 °F 72% 30.20 in 10.0 mi Calm Calm - N/A   Clear
10:54 AM 62.1 °F - 46.9 °F 58% 30.19 in 10.0 mi Calm Calm - N/A   Clear
11:54 AM 64.9 °F - 45.0 °F 48% 30.18 in 10.0 mi NNW 12.7 mph 17.3 mph N/A   Clear
12:54 PM 66.0 °F - 43.0 °F 43% 30.17 in 10.0 mi North 12.7 mph 20.7 mph N/A   Clear
1:54 PM 66.9 °F - 41.0 °F 39% 30.17 in 10.0 mi NNW 9.2 mph 19.6 mph N/A   Clear
2:54 PM 68.0 °F - 39.0 °F 35% 30.16 in 10.0 mi NNW 9.2 mph - N/A   Clear
3:54 PM 69.1 °F - 37.0 °F 31% 30.16 in 10.0 mi North 10.4 mph - N/A   Clear
4:54 PM 69.1 °F - 37.9 °F 32% 30.15 in 10.0 mi North 8.1 mph - N/A   Clear
5:54 PM 66.9 °F - 39.9 °F 37% 30.15 in 10.0 mi North 5.8 mph - N/A   Clear
6:54 PM 55.0 °F - 46.0 °F 72% 30.17 in 10.0 mi Calm Calm - N/A   Clear
7:54 PM 51.1 °F - 45.0 °F 80% 30.19 in 10.0 mi Calm Calm - N/A   Clear
8:54 PM 46.9 °F - 44.1 °F 90% 30.19 in 10.0 mi Calm Calm - N/A   Clear
9:54 PM 46.0 °F 43.9 °F 43.0 °F 89% 30.21 in 10.0 mi SSE 4.6 mph - N/A   Clear
10:54 PM 46.0 °F - 42.1 °F 86% 30.22 in 10.0 mi Calm Calm - N/A   Clear
11:54 PM 46.0 °F 44.8 °F 42.1 °F 86% 30.23 in 10.0 mi South 3.5 mph - N/A   Clear